[[{"header":{"parameterUnit":"m.s-1","parameterCategory":1,"la1":30.2991,"la2":30.254,"lo1":-89.0895,"lo2":-89.0444,"dy":0.0017,"dx":0.0017,"nx":28,"ny":28,"refTime":"2026-02-18T03:00:00:Z","depth":0,"parameterNumber":2,"parameterNumberName":"U-component_of_WINDS"},"data":[0,0,0,0,0,0,0,0,0,0,0,0,0,0,0,0,0,0,0,0,0,0,0,0,0,0,0,0,0,0,0,0,0,0,0,0,0,0,0,0,0,0,0,0,0,0,0,0,0,0,0,0,0,0,0,0,0,0,-0.2949,-0.2949,0,-0.2901,-0.2901,-0.29,-0.2878,-0.2878,-0.2878,-0.2878,-0.2829,-0.2828,-0.2826,0,0,0,0,0,0,0,0,0,0,0,0,0,-0.302,-0.3019,-0.2949,-0.2948,-0.2948,-0.2901,-0.2901,-0.29,-0.2878,-0.2878,-0.2878,-0.2878,-0.2829,-0.2828,-0.2826,0,0,0,0,0,0,0,0,0,0,0,0,0,-0.2983,-0.3018,-0.2949,-0.2931,-0.2929,-0.2902,-0.2901,-0.29,-0.2878,-0.2878,-0.2878,-0.2878,-0.283,-0.2828,-0.2826,-0.2812,0,0,-0.282,-0.2819,0,0,0,0,0,0,0,0,-0.2985,-0.298,-0.2935,-0.2933,-0.293,-0.2896,-0.2908,-0.287,-0.2878,-0.2898,-0.2878,-0.2879,-0.2851,-0.2847,-0.2838,-0.281,-0.2808,-0.2819,-0.2818,-0.2817,-0.2817,0,0,0,0,0,0,0,-0.2987,-0.2982,-0.293,-0.2934,-0.2931,-0.2925,-0.292,-0.29,-0.2875,-0.2896,-0.2894,-0.2889,-0.285,-0.284,-0.2837,-0.2807,-0.2819,-0.2818,-0.2816,-0.2816,-0.2764,-0.2763,0,0,0,0,0,0,-0.2993,-0.2984,-0.2932,-0.2929,-0.2958,-0.2924,-0.2918,-0.2907,-0.2875,-0.287,-0.2889,-0.2888,-0.2844,-0.2839,-0.2835,-0.2816,-0.2817,-0.2815,-0.2814,-0.2764,-0.2763,-0.2763,0,0,0,0,0,0,-0.2995,-0.2988,-0.2934,-0.2956,-0.2949,-0.2923,-0.291,-0.2906,-0.2896,-0.2869,-0.2865,-0.2884,-0.2844,-0.2838,-0.2818,-0.2814,-0.2814,-0.2813,-0.2764,-0.2764,-0.2763,-0.2778,0,0,0,0,0,0,-0.2997,-0.2989,-0.2984,-0.2956,-0.2947,-0.2917,-0.291,-0.2905,-0.2893,-0.2891,-0.2863,-0.2859,-0.2843,-0.2821,-0.2816,-0.2811,-0.2811,-0.2764,-0.2764,-0.2763,-0.2778,-0.2779,-0.2779,0,0,0,0,0,-0.2999,-0.299,-0.2984,-0.2978,-0.294,-0.2917,-0.2912,-0.2895,-0.2893,-0.2887,-0.287,-0.286,-0.2815,-0.2819,-0.2813,-0.2808,-0.2764,-0.2764,-0.2763,-0.2778,-0.2778,-0.2779,0,0,0,0,0,0,-0.3018,-0.2986,-0.2979,-0.296,-0.2942,-0.2914,-0.2906,-0.2896,-0.2878,-0.2877,-0.2856,-0.2849,-0.2831,-0.2817,-0.2822,-0.2792,-0.2789,-0.2787,-0.2802,-0.2802,-0.2803,-0.2806,-0.2809,0,0,0,0,0,-0.302,-0.3004,-0.2977,-0.2964,-0.2955,-0.2932,-0.2921,-0.2909,-0.2889,-0.2881,-0.2862,-0.2843,-0.2824,-0.2813,-0.2794,-0.2776,-0.2769,-0.2769,-0.277,-0.2771,-0.2769,-0.2758,-0.2758,-0.2762,-0.2762,-0.2762,0,0,-0.3024,-0.3005,-0.2996,-0.2967,-0.2951,-0.2935,-0.2925,-0.2909,-0.2896,-0.2878,-0.2858,-0.2844,-0.282,-0.2801,-0.2792,-0.2789,-0.2767,-0.277,-0.2771,-0.2769,-0.2758,-0.2757,-0.2757,-0.2762,-0.2762,-0.2762,0,0,-0.3023,-0.3007,-0.2994,-0.2978,-0.2954,-0.2939,-0.2936,-0.2909,-0.2899,-0.2878,-0.2864,-0.2849,-0.2818,-0.2801,-0.2789,-0.2781,-0.2771,-0.2776,-0.2778,-0.2768,-0.2767,-0.2767,-0.2763,-0.2763,-0.2775,-0.2775,-0.2775,0,-0.3031,-0.3006,-0.2988,-0.2972,-0.2959,-0.2942,-0.2928,-0.2913,-0.2885,-0.2876,-0.2874,-0.2834,-0.2817,-0.2793,-0.2791,-0.2782,-0.2777,-0.2779,-0.2769,-0.2768,-0.2768,-0.2764,-0.2763,-0.2775,-0.2775,-0.2775,-0.2775,0,-0.3017,-0.3,-0.2992,-0.2964,-0.2951,-0.2936,-0.2914,-0.2903,-0.2892,-0.2877,-0.2856,-0.2835,-0.2812,-0.2805,-0.2794,-0.278,-0.2779,-0.2773,-0.2769,-0.2768,-0.2764,-0.2763,-0.2776,-0.2776,-0.2776,-0.2776,0,0,-0.3026,-0.2989,-0.2986,-0.2973,-0.2945,-0.2931,-0.2915,-0.2893,-0.2883,-0.2863,-0.2849,-0.2823,-0.2817,-0.2803,-0.279,-0.2781,-0.2775,-0.2776,-0.2775,-0.2776,-0.2757,-0.2761,-0.276,-0.2769,-0.2768,-0.2768,-0.2759,0,-0.3021,-0.2991,-0.2974,-0.2952,-0.2935,-0.2919,-0.2904,-0.2886,-0.2871,-0.2855,-0.2839,-0.282,-0.2814,-0.2806,-0.2796,-0.2778,-0.2771,-0.2779,-0.2755,-0.2754,-0.276,-0.2758,-0.2763,-0.2755,-0.2757,-0.2757,-0.2757,0,-0.3011,-0.2992,-0.2967,-0.2941,-0.2933,-0.2921,-0.2898,-0.2883,-0.2861,-0.2851,-0.2836,-0.2823,-0.2804,-0.2802,-0.2777,-0.2782,-0.2771,-0.2761,-0.276,-0.2757,-0.2755,-0.2754,-0.2752,-0.275,-0.2755,-0.2755,-0.2755,0,-0.3019,-0.2988,-0.2969,-0.2958,-0.2927,-0.2918,-0.2905,-0.2883,-0.287,-0.2851,-0.2842,-0.2821,-0.2809,-0.2792,-0.2774,-0.2774,-0.2749,-0.2746,-0.274,-0.2741,-0.2735,-0.2736,-0.2731,-0.2729,-0.2729,-0.2729,-0.273,0,-0.3015,-0.3,-0.2972,-0.296,-0.2944,-0.2924,-0.2908,-0.2893,-0.2873,-0.2858,-0.2843,-0.2829,-0.2805,-0.2788,-0.2774,-0.2754,-0.2749,-0.274,-0.2737,-0.2741,-0.2742,-0.2734,-0.2733,-0.2729,-0.2729,-0.2729,-0.2729,0,-0.3021,-0.3002,-0.298,-0.2952,-0.2945,-0.2933,-0.2909,-0.2897,-0.2882,-0.2863,-0.2857,-0.2833,-0.2812,-0.2792,-0.2764,-0.2754,-0.2735,-0.273,-0.2742,-0.274,-0.2735,-0.2736,-0.2724,-0.2721,-0.2722,-0.2722,-0.2722,0,-0.302,-0.3008,-0.2979,-0.2967,-0.2954,-0.2936,-0.2923,-0.2903,-0.289,-0.2864,-0.2855,-0.2833,-0.2814,-0.2781,-0.2761,-0.274,-0.2734,-0.2731,-0.2731,-0.2736,-0.2733,-0.2734,-0.2732,-0.2732,-0.2732,-0.2732,-0.2732,0,-0.3018,-0.3009,-0.2991,-0.2969,-0.2953,-0.2935,-0.2916,-0.2908,-0.2884,-0.287,-0.2849,-0.2834,-0.2806,-0.2784,-0.276,-0.2746,-0.2734,-0.2732,-0.273,-0.2734,-0.2741,-0.2737,-0.2743,-0.2732,-0.2732,-0.2732,-0.2732,-0.2732,-0.302,-0.3009,-0.2986,-0.2966,-0.295,-0.2932,-0.2919,-0.2902,-0.2884,-0.2859,-0.2848,-0.2826,-0.2804,-0.2771,-0.2757,-0.2739,-0.2736,-0.2733,-0.2732,-0.2731,-0.2732,-0.2745,-0.2735,-0.2735,-0.2735,-0.2735,-0.2734,0,-0.3017,-0.3002,-0.2983,-0.2957,-0.2941,-0.2933,-0.2911,-0.2898,-0.2879,-0.286,-0.2841,-0.2816,-0.2795,-0.2773,-0.275,-0.274,-0.2735,-0.2735,-0.2735,-0.2732,-0.2736,-0.274,-0.274,-0.274,-0.274,-0.274,-0.274,-0.274,-0.3014,-0.2994,-0.2982,-0.2954,-0.2938,-0.2917,-0.2905,-0.2889,-0.2873,-0.2846,-0.2828,-0.2814,-0.2793,-0.2768,-0.2748,-0.2742,-0.2734,-0.2736,-0.2728,-0.2732,-0.2732,-0.2732,-0.2735,-0.2735,-0.2734,-0.2726,-0.2726,-0.2726]},{"header":{"parameterUnit":"m.s-1","parameterCategory":1,"la1":30.2991,"la2":30.254,"lo1":-89.0895,"lo2":-89.0444,"dy":0.0017,"dx":0.0017,"nx":28,"ny":28,"refTime":"2026-02-18T03:00:00:Z","depth":0,"parameterNumber":3,"parameterNumberName":"V-component_of_WINDS"},"data":[0,0,0,0,0,0,0,0,0,0,0,0,0,0,0,0,0,0,0,0,0,0,0,0,0,0,0,0,0,0,0,0,0,0,0,0,0,0,0,0,0,0,0,0,0,0,0,0,0,0,0,0,0,0,0,0,0,0,2.5002,2.5003,0,2.5116,2.5117,2.5119,2.5146,2.5146,2.5145,2.5144,2.5261,2.5265,2.5269,0,0,0,0,0,0,0,0,0,0,0,0,0,2.481,2.4813,2.5002,2.5003,2.5005,2.5116,2.5117,2.5119,2.5146,2.5146,2.5145,2.5144,2.526,2.5264,2.5269,0,0,0,0,0,0,0,0,0,0,0,0,0,2.4905,2.4814,2.5002,2.5032,2.5036,2.5115,2.5117,2.5119,2.5147,2.5146,2.5144,2.5143,2.5258,2.5264,2.527,2.5327,0,0,2.5287,2.5289,0,0,0,0,0,0,0,0,2.49,2.4912,2.5026,2.503,2.5035,2.5116,2.5092,2.5189,2.5147,2.5105,2.5144,2.5143,2.5214,2.5223,2.5247,2.5333,2.5338,2.5288,2.5291,2.5293,2.5295,0,0,0,0,0,0,0,2.4893,2.4908,2.5047,2.5028,2.5033,2.504,2.5053,2.5111,2.5164,2.5108,2.5111,2.5124,2.5216,2.5241,2.525,2.5339,2.5287,2.5292,2.5296,2.5298,2.5481,2.5482,0,0,0,0,0,0,2.4881,2.4902,2.5043,2.5051,2.4963,2.5045,2.5058,2.5091,2.5163,2.5173,2.5124,2.5124,2.5232,2.5243,2.5254,2.5329,2.5293,2.5299,2.5302,2.548,2.5481,2.5483,0,0,0,0,0,0,2.4877,2.4893,2.5039,2.4977,2.4996,2.5049,2.5085,2.5094,2.5119,2.5176,2.5185,2.5141,2.5232,2.5246,2.5309,2.5333,2.5301,2.5307,2.5478,2.548,2.5482,2.5476,0,0,0,0,0,0,2.4871,2.4892,2.4914,2.4977,2.4999,2.5092,2.5087,2.5097,2.5129,2.513,2.5194,2.5203,2.5232,2.5301,2.5315,2.534,2.5311,2.5476,2.5479,2.5481,2.5475,2.5478,2.5481,0,0,0,0,0,2.4864,2.4907,2.4915,2.4932,2.5028,2.5093,2.5106,2.5138,2.5131,2.5154,2.519,2.5201,2.5327,2.5307,2.5323,2.535,2.5475,2.5478,2.5481,2.5473,2.5477,2.5481,0,0,0,0,0,0,2.4845,2.4916,2.4925,2.499,2.5035,2.5098,2.5128,2.5141,2.5189,2.5188,2.5226,2.524,2.5302,2.5332,2.5308,2.5411,2.5401,2.5408,2.539,2.5394,2.5397,2.5389,2.5316,0,0,0,0,0,2.4848,2.4895,2.4955,2.5006,2.5029,2.5074,2.5104,2.5125,2.5173,2.5193,2.5234,2.5281,2.5332,2.5364,2.5413,2.5479,2.5494,2.5506,2.5509,2.5511,2.5517,2.5556,2.5562,2.5493,2.5493,2.5493,0,0,2.4856,2.49,2.4928,2.5004,2.5041,2.509,2.509,2.5141,2.5178,2.5201,2.5264,2.5295,2.535,2.5416,2.5446,2.5443,2.5539,2.5515,2.5516,2.5521,2.556,2.5566,2.5572,2.5496,2.5495,2.5495,0,0,2.4895,2.4932,2.498,2.5018,2.5076,2.5106,2.5117,2.5178,2.52,2.5264,2.5283,2.5327,2.5413,2.5452,2.5483,2.5538,2.555,2.5553,2.5569,2.5607,2.5613,2.5618,2.564,2.5647,2.5558,2.5558,2.5558,0,2.4897,2.4971,2.5003,2.5054,2.5088,2.5111,2.5161,2.5196,2.5266,2.5289,2.5284,2.5393,2.5432,2.5507,2.5521,2.5544,2.556,2.5546,2.5609,2.5615,2.562,2.5641,2.5649,2.5558,2.5558,2.5558,2.5558,0,2.4972,2.5022,2.5054,2.5123,2.516,2.5209,2.5251,2.5284,2.5302,2.5333,2.5399,2.5445,2.5506,2.5525,2.5542,2.5604,2.56,2.5601,2.5592,2.5626,2.5647,2.5655,2.5558,2.5558,2.5558,2.5558,0,0,2.5002,2.5089,2.51,2.5132,2.5197,2.5238,2.5289,2.5348,2.5378,2.5425,2.547,2.5543,2.5545,2.558,2.5602,2.5635,2.5678,2.5633,2.5634,2.5641,2.5752,2.5752,2.5761,2.5686,2.5688,2.5689,2.5748,0,2.5051,2.5144,2.5176,2.5253,2.5301,2.5324,2.5369,2.5414,2.5445,2.5491,2.5524,2.5576,2.5573,2.5595,2.5629,2.5666,2.5701,2.5662,2.573,2.5732,2.5718,2.5771,2.5772,2.5825,2.5756,2.5757,2.5758,0,2.512,2.517,2.5253,2.5314,2.5335,2.5375,2.5433,2.5476,2.5528,2.5548,2.5588,2.5608,2.5664,2.565,2.5728,2.57,2.573,2.5753,2.5756,2.5765,2.5749,2.5785,2.5843,2.5852,2.5771,2.577,2.5769,0,2.5138,2.5225,2.5286,2.5313,2.5384,2.5412,2.5444,2.5495,2.5529,2.5579,2.5602,2.5658,2.5689,2.5733,2.5768,2.5754,2.5844,2.5832,2.5863,2.5863,2.5883,2.5881,2.5949,2.5898,2.5898,2.5897,2.5897,0,2.519,2.524,2.5295,2.5333,2.539,2.5426,2.5482,2.5514,2.556,2.5605,2.5627,2.5669,2.5712,2.576,2.5787,2.5849,2.5862,2.5881,2.5888,2.5881,2.5879,2.5902,2.59,2.59,2.5899,2.5899,2.5898,0,2.522,2.5258,2.5327,2.539,2.5407,2.5446,2.5501,2.5539,2.557,2.5627,2.5642,2.5692,2.575,2.5788,2.5861,2.588,2.5948,2.5953,2.5931,2.5935,2.5965,2.5963,2.6052,2.6066,2.6003,2.6004,2.6004,0,2.5252,2.5291,2.5359,2.5391,2.5422,2.5473,2.5509,2.5545,2.5581,2.5645,2.5676,2.5735,2.5784,2.5876,2.5918,2.5975,2.5983,2.6011,2.5992,2.5984,2.5987,2.5985,2.599,2.6014,2.6015,2.6015,2.6016,0,2.5306,2.5323,2.5373,2.5431,2.5473,2.552,2.5567,2.5592,2.5637,2.5676,2.5736,2.5774,2.585,2.5909,2.597,2.6003,2.6018,2.6021,2.6032,2.6025,2.6012,2.6022,2.5942,2.6019,2.6019,2.6018,2.6018,2.6018,2.5339,2.5376,2.543,2.5486,2.5525,2.5569,2.5609,2.5645,2.5695,2.576,2.5779,2.5841,2.5894,2.5977,2.6011,2.6061,2.6059,2.6073,2.6078,2.6081,2.6083,2.6002,2.6072,2.6072,2.6072,2.6072,2.6072,0,2.5396,2.5432,2.5483,2.5549,2.5593,2.5602,2.5655,2.5692,2.5747,2.5794,2.5843,2.5912,2.597,2.6018,2.6078,2.6109,2.6117,2.6123,2.6123,2.6131,2.6081,2.6067,2.6116,2.6116,2.6116,2.6116,2.6116,2.6116,2.5432,2.5495,2.5519,2.5603,2.5639,2.5701,2.573,2.5771,2.581,2.5887,2.5935,2.5965,2.6014,2.6077,2.6131,2.6144,2.6166,2.6171,2.6186,2.6139,2.6134,2.6129,2.6116,2.6175,2.6175,2.6232,2.6232,2.6233]}]]